Location: Dvur Kralove nad Labem
(50.4330°N, 15.8170°E)
Time: 15:04:36
(UTC+02:00)

ISS - Pass Details

Date: 17 May 2018
Orbit: 402 x 407 km, 51.6° (Epoch: 24 May)

Event Time Altitude Azimuth Distance (km) Brightness Sun altitude
Exits shadow 02:39:08 17° 275° (W) 1,117 -1.8 -16.5°
Maximum altitude 02:41:32 69° 357° (N) 435 -3.6 -16.3°
Drops below altitude 10° 02:44:47 10° 82° (E) 1,458 -0.5 -16.1°
Sets 02:46:53 0° 85° (E) 2,317 0.5 -15.9°
